Total_Precipitation_Accumulation
0.89 0.90 0.92 1.01 1.09 1.10 1.07 1.07 1.13 1.21 1.31 1.51 1.81 2.33 2.61 2.68 2.54 2.47 2.38 2.18 1.95 1.93 2.11 2.14 2.11 2.09 2.10 2.08 2.02 2.23 2.17 1.88 1.78 2.00 1.98 1.79 1.58 1.48 1.45 1.49 1.73 1.84 1.74
0.89 0.86 0.86 0.90 0.96 0.96 0.97 1.13 1.20 1.26 1.33 1.56 1.86 2.23 2.66 2.74 2.67 2.53 2.43 2.31 2.18 2.14 2.18 2.42 2.53 2.49 2.67 2.69 2.47 2.58 2.60 2.22 1.99 2.32 2.68 2.40 2.13 1.63 1.49 1.61 1.65 1.76 1.87
0.75 0.79 0.83 0.87 0.87 0.86 0.84 0.95 1.14 1.36 1.61 1.87 2.16 2.33 2.61 2.71 2.69 2.56 2.48 2.49 2.42 2.29 2.37 2.48 2.64 2.65 2.74 2.94 3.06 2.95 3.02 2.81 2.37 2.25 2.65 2.62 2.47 2.21 1.78 1.67 1.73 1.85 1.91
0.69 0.72 0.79 0.85 0.82 0.78 0.80 0.86 1.00 1.31 1.69 2.01 2.23 2.47 2.83 2.93 2.77 2.67 2.55 2.56 2.58 2.57 2.68 2.68 2.73 2.74 2.76 2.86 3.03 3.02 3.19 3.31 2.90 2.52 2.27 2.12 2.15 2.34 2.16 1.85 1.79 1.92 1.91
0.56 0.62 0.67 0.71 0.75 0.81 0.86 0.92 1.11 1.39 1.72 1.92 2.17 2.50 2.69 2.80 2.86 2.73 2.67 2.64 2.67 2.68 2.76 2.81 2.91 2.89 2.86 2.79 3.00 3.10 3.21 3.17 3.12 2.99 2.81 2.64 2.38 2.03 2.18 2.19 1.99 1.88 1.76
0.47 0.57 0.69 0.76 0.84 0.88 0.98 1.09 1.24 1.44 1.69 1.89 2.14 2.29 2.47 2.63 2.68 2.71 2.64 2.60 2.64 2.73 2.61 2.56 2.73 2.77 2.78 2.73 2.88 3.02 3.18 3.17 3.21 3.15 2.86 2.88 2.80 2.44 2.38 2.21 2.04 2.07 1.86
0.57 0.69 0.84 1.00 1.08 1.10 1.14 1.25 1.37 1.55 1.70 1.80 1.95 2.04 2.13 2.26 2.23 2.37 2.41 2.53 2.53 2.56 2.57 2.49 2.51 2.56 2.48 2.45 2.55 2.60 2.69 2.84 3.03 2.93 2.68 2.64 2.50 2.50 2.62 2.52 2.25 2.05 1.81
0.73 0.89 1.07 1.30 1.39 1.41 1.43 1.45 1.51 1.58 1.61 1.65 1.75 1.88 1.95 2.00 1.97 1.95 1.95 2.11 2.26 2.28 2.35 2.38 2.34 2.38 2.41 2.35 2.43 2.43 2.44 2.49 2.55 2.47 2.58 2.65 2.47 2.41 2.43 2.52 2.73 2.49 2.17
1.01 1.16 1.32 1.45 1.46 1.54 1.54 1.54 1.58 1.58 1.57 1.60 1.64 1.62 1.66 1.72 1.73 1.71 1.78 1.81 1.87 1.88 1.92 1.97 2.12 2.24 2.29 2.30 2.42 2.47 2.43 2.35 2.33 2.42 2.50 2.43 2.37 2.36 2.30 2.33 2.54 2.72 2.52
1.34 1.52 1.70 1.70 1.65 1.68 1.78 1.72 1.65 1.62 1.65 1.66 1.65 1.57 1.60 1.63 1.63 1.54 1.58 1.54 1.51 1.52 1.58 1.67 1.85 2.15 2.29 2.30 2.35 2.41 2.42 2.41 2.33 2.42 2.54 2.57 2.52 2.54 2.50 2.41 2.42 2.41 2.47
1.72 1.85 1.97 1.98 1.83 1.72 1.71 1.66 1.60 1.58 1.54 1.60 1.68 1.63 1.57 1.59 1.61 1.53 1.44 1.41 1.41 1.40 1.47 1.55 1.70 1.86 2.08 2.29 2.43 2.42 2.36 2.33 2.29 2.20 2.32 2.47 2.52 2.63 2.69 2.72 2.63 2.52 2.49
1.64 1.71 1.73 1.84 1.76 1.67 1.57 1.55 1.48 1.37 1.39 1.46 1.57 1.65 1.55 1.51 1.51 1.43 1.47 1.38 1.31 1.30 1.31 1.47 1.67 1.79 1.88 1.97 2.05 2.11 2.15 2.16 2.18 2.12 2.07 2.14 2.23 2.35 2.51 2.63 2.61 2.62 2.53
1.36 1.49 1.60 1.57 1.61 1.63 1.55 1.66 1.70 1.54 1.54 1.58 1.72 1.71 1.61 1.55 1.53 1.38 1.45 1.39 1.33 1.31 1.30 1.36 1.52 1.63 1.72 1.79 1.84 1.95 2.05 2.06 1.98 1.96 1.85 1.82 1.92 2.06 2.21 2.28 2.40 2.55 2.60
1.22 1.28 1.40 1.38 1.50 1.62 1.60 1.69 1.74 1.68 1.67 1.77 1.85 1.74 1.66 1.60 1.56 1.42 1.36 1.34 1.35 1.33 1.35 1.46 1.52 1.57 1.59 1.71 1.77 1.85 1.85 1.81 1.71 1.68 1.59 1.58 1.61 1.74 1.91 2.03 2.23 2.46 2.59
1.06 1.03 1.07 1.14 1.27 1.34 1.36 1.41 1.46 1.49 1.59 1.67 1.69 1.70 1.58 1.46 1.42 1.45 1.29 1.28 1.37 1.38 1.42 1.48 1.54 1.58 1.59 1.65 1.75 1.69 1.59 1.58 1.56 1.49 1.31 1.26 1.34 1.39 1.52 1.53 1.81 2.10 2.34
0.85 0.84 0.85 0.89 0.98 0.92 0.95 1.00 1.16 1.33 1.49 1.54 1.50 1.47 1.42 1.43 1.40 1.33 1.28 1.26 1.28 1.32 1.34 1.35 1.50 1.60 1.49 1.70 1.71 1.52 1.34 1.31 1.38 1.35 1.22 1.15 1.17 1.12 1.15 1.20 1.44 1.74 1.92
0.74 0.77 0.78 0.76 0.80 0.80 0.83 0.88 0.98 1.15 1.28 1.34 1.29 1.20 1.17 1.21 1.25 1.23 1.26 1.28 1.27 1.27 1.30 1.25 1.34 1.40 1.50 1.57 1.39 1.38 1.27 1.26 1.26 1.28 1.30 1.18 1.10 1.21 1.08 1.07 1.16 1.26 1.41
0.64 0.69 0.71 0.70 0.74 0.81 0.87 0.94 1.00 1.02 1.11 1.21 1.20 1.15 1.10 1.07 1.09 1.12 1.19 1.28 1.24 1.20 1.24 1.21 1.16 1.21 1.36 1.38 1.21 1.27 1.17 1.26 1.31 1.33 1.41 1.41 1.30 1.28 1.37 1.29 1.27 1.21 1.17
0.47 0.48 0.51 0.54 0.60 0.68 0.75 0.78 0.80 0.81 0.86 0.93 0.98 0.97 0.91 0.96 1.04 1.04 1.18 1.27 1.19 1.17 1.14 1.15 1.11 1.14 1.19 1.21 1.11 1.14 1.14 1.28 1.28 1.22 1.36 1.42 1.34 1.46 1.59 1.62 1.62 1.51 1.32
0.33 0.31 0.35 0.38 0.44 0.52 0.66 0.71 0.67 0.62 0.65 0.71 0.74 0.80 0.81 0.85 0.93 1.04 1.15 1.19 1.17 1.16 1.10 1.09 1.05 1.02 1.01 1.10 0.99 1.08 1.14 1.23 1.25 1.25 1.29 1.50 1.42 1.44 1.44 1.46 1.56 1.51 1.33
0.31 0.29 0.31 0.36 0.41 0.48 0.57 0.61 0.64 0.60 0.60 0.66 0.66 0.70 0.73 0.79 0.92 1.02 0.99 0.96 0.99 1.04 1.05 1.08 1.02 0.96 1.00 1.10 1.10 1.15 1.14 1.20 1.24 1.34 1.37 1.35 1.51 1.38 1.32 1.29 1.25 1.35 1.35
0.28 0.28 0.30 0.34 0.43 0.46 0.47 0.50 0.51 0.52 0.55 0.58 0.62 0.61 0.61 0.66 0.74 0.82 0.91 0.90 0.90 0.94 0.92 0.92 0.92 0.88 0.95 1.02 1.00 1.03 1.06 1.15 1.12 1.16 1.17 1.14 1.30 1.16 1.10 1.03 1.07 1.19 1.25
0.24 0.28 0.34 0.40 0.45 0.48 0.46 0.45 0.46 0.49 0.55 0.59 0.62 0.59 0.57 0.59 0.65 0.73 0.84 0.92 0.94 0.92 0.89 0.81 0.77 0.77 0.78 0.85 0.89 0.85 0.84 0.89 0.89 0.88 1.04 1.08 1.07 1.01 0.93 0.99 1.04 1.06 1.09
0.23 0.27 0.35 0.39 0.45 0.46 0.46 0.46 0.46 0.47 0.51 0.57 0.62 0.62 0.63 0.66 0.67 0.69 0.75 0.88 0.94 0.86 0.78 0.77 0.77 0.79 0.79 0.75 0.74 0.76 0.74 0.75 0.82 0.82 0.92 0.96 0.92 0.91 0.91 0.95 0.99 1.02 1.07
0.24 0.27 0.33 0.38 0.43 0.49 0.47 0.47 0.46 0.45 0.48 0.54 0.59 0.59 0.63 0.68 0.67 0.63 0.63 0.70 0.77 0.83 0.85 0.83 0.84 0.86 0.86 0.78 0.73 0.69 0.72 0.77 0.85 0.94 0.89 0.88 0.86 0.87 0.93 0.95 0.96 1.01 1.07
0.30 0.31 0.32 0.37 0.39 0.44 0.50 0.51 0.55 0.53 0.52 0.54 0.58 0.59 0.62 0.67 0.66 0.63 0.63 0.65 0.65 0.74 0.77 0.77 0.79 0.71 0.68 0.69 0.65 0.63 0.67 0.74 0.83 0.97 1.02 1.04 1.08 1.10 1.09 1.06 0.97 0.94 0.98